Location: Coll
(42.4728°N, 0.7714°E)
Time: 12:05:24
(UTC+00:00)

Cosmos 1484 Rocket - Pass Details

Date: 23 October 2020
Orbit: 504 x 560 km, 97.4° (Epoch: 30 November)

Event Time Altitude Azimuth Distance (km) Brightness Sun altitude
Rises 04:40:49 0° 11° (N) 2,716 6.5 -18.9°
Reaches altitude 10° 04:42:58 10° 10° (N) 1,810 5.6 -18.5°
Maximum altitude 04:46:53 81° 284° (WNW) 545 2.6 -17.8°
Drops below altitude 10° 04:50:41 10° 197° (SSW) 1,761 5.2 -17.1°
Sets 04:52:45 0° 196° (SSW) 2,636 6.1 -16.7°
